DELTA 1 DEB

Satellite information

Favourite Embed

Satellite Type and Status

DEBRISIN ORBIT

Key statistics

Satellite DELTA 1 DEB at a glance.

Uptime

18483

Days in orbit

Revolutions

≈ 14.5

Per day

Orbit

SSO

Sun Synchronous Orbit

Inclination

97.4

Latest

Satellite identification and parameters

Extended collection of information and parameters for DELTA 1 DEB.

Object identification

Identified? True

Debris? True

Object name: DELTA 1 DEB

International designator: 1975-004FU

Object number (NORAD): 9619

Object ID (CCSDS): 9619

Country: UNITED STATES OF AMERICA (US)

Current information (Y/N): Y

RCS size: SMALL

Orbital parameters

Period: 99.453 minutes

Inclination: 97.378 deg

SMA: 7110.57 km

Apoapsis: 804.499 km

Periapsis: 660.371 km

RAAN: 255.6547 deg

Eccentricy: 0.01013477

Argument of periapsis: 187.2987 deg

Mean anomaly: 172.6739 deg

Mean motion: 14.47925145 rev/day

Mean motion (dot): 0.00001529 rev/day2

B* drag term: 0.00039633607 1/REarth

Two-line elements (TLE)

Creation date: Aug. 28, 2025, 2:53 a.m.

Reference frame: TEME

Reference center: EARTH

Epoch: Aug. 27, 2025, 6:35 p.m. UTC

TLE line 0: 0 DELTA 1 DEB

TLE line 1: 1 09619U 75004FU 25239.77431129 .00001529 00000-0 39634-3 0 9991

TLE line 2: 2 09619 97.3780 255.6547 0101348 187.2987 172.6739 14.47925145628906

Live tracking on map

Real-time ground track for satellite DELTA 1 DEB.

In-orbit conjunctions

A list of the most updated potential collisions computed for object DELTA 1 DEB.

Target Orbit TCA Probability of collision Miss distance Type
BREEZE-KM R/B SSO 2025-01-05 21:09:41 0.0005585253 805.0 (m) ROCKET BODY

Associated space launch

Earth observation satellite

DELTA 1 DEB was lifted into orbit during the mission ‘Delta 2910 | Landsat 2’, on board a Delta 2910 space rocket.

The launch took place on Jan. 22, 1975, 5:55 p.m. from Space Launch Complex 2W.

For more information about the launch, click the button.

Launch to space Delta 2910 | Landsat 2
Delta 2910 | Landsat 2

Agency: N/A

Status: Launch Successful

Launch date: Jan. 22, 1975, 5:55 p.m. UTC

Rocket: Delta 2910

Launch pad: Space Launch Complex 2W

Location: Vandenberg SFB, CA, USA

...

Latest news about this satellite

There are no fresh news available about this satellite. Check back as we update our databases every day.


Newsletter sign-up

Weekly statistics, charts and insights to help you stay on top of the space industry.